Location: Buffign�court
(47.8126°N, 6.0176°E)
Time: 12:39:15
(UTC+00:00)

Cosmos 1802 Rocket - Pass Details

Date: 16 June 2021
Orbit: 955 x 1010 km, 82.9° (Epoch: 31 July)

Event Time Altitude Azimuth Distance (km) Brightness Sun altitude
Rises 20:41:34 0° 354° (N) 3,676 8.1 -8.7°
Reaches altitude 10° 20:44:09 10° 359° (N) 2,733 7.2 -9.0°
Maximum altitude 20:50:16 52° 76° (ENE) 1,212 4.4 -9.6°
Enters shadow 20:55:53 12° 150° (SSE) 2,572 5.5 -10.2°
